• En España
  • Lista de países
  • Para 7 días
  • Temperatura del agua
  • Mapa Satelital
  • El tiempo en el mapa
  • Informadores
  • user-avatar
    Iniciar sesión

    Tiempo cada hora Saurimo

    Hoy, 18 Agosto, Sábado

    Tiempo Temperatura Precipitaciones Viento Presión Humedad
    00:00 +22°C° 0 mm 1 mps 670 mmHg 22%
    01:00 +21°C° 0 mm 1 mps 670 mmHg 24%
    02:00 +19°C° 0 mm 2 mps 670 mmHg 25%
    03:00 +19°C° 0 mm 2 mps 670 mmHg 25%
    04:00 +18°C° 0 mm 2 mps 669 mmHg 26%
    05:00 +19°C° 0 mm 2 mps 670 mmHg 24%
    06:00 +20°C° 0 mm 3 mps 670 mmHg 22%
    07:00 +21°C° 0 mm 3 mps 671 mmHg 20%
    08:00 +26°C° 0 mm 3 mps 671 mmHg 17%
    09:00 +30°C° 0 mm 3 mps 672 mmHg 13%
    10:00 +35°C° 0 mm 4 mps 673 mmHg 10%
    11:00 +36°C° 0 mm 3 mps 673 mmHg 9%
    12:00 +38°C° 0 mm 3 mps 672 mmHg 8%
    13:00 +39°C° 0 mm 2 mps 672 mmHg 7%
    14:00 +39°C° 0 mm 2 mps 671 mmHg 7%
    15:00 +38°C° 0 mm 2 mps 671 mmHg 7%
    16:00 +38°C° 0 mm 2 mps 670 mmHg 7%
    17:00 +34°C° 0 mm 1 mps 670 mmHg 9%
    18:00 +30°C° 0 mm 1 mps 670 mmHg 10%
    19:00 +27°C° 0 mm 1 mps 669 mmHg 12%
    20:00 +26°C° 0 mm 1 mps 670 mmHg 13%
    21:00 +25°C° 0 mm 1 mps 670 mmHg 14%
    22:00 +24°C° 0 mm 1 mps 670 mmHg 15%
    23:00 +23°C° 0 mm 1 mps 670 mmHg 16%

    Mañana, 19 Agosto, Domingo

    Tiempo Temperatura Precipitaciones Viento Presión Humedad
    00:00 +22°C° 0 mm 1 mps 670 mmHg 17%
    01:00 +22°C° 0 mm 1 mps 670 mmHg 18%
    02:00 +21°C° 0 mm 1 mps 669 mmHg 19%
    03:00 +20°C° 0 mm 1 mps 669 mmHg 19%
    04:00 +20°C° 0 mm 1 mps 669 mmHg 20%
    05:00 +21°C° 0 mm 1 mps 670 mmHg 20%
    06:00 +21°C° 0 mm 1 mps 670 mmHg 19%
    07:00 +22°C° 0 mm 1 mps 671 mmHg 18%
    08:00 +26°C° 0 mm 1 mps 672 mmHg 15%
    09:00 +30°C° 0 mm 2 mps 673 mmHg 12%
    10:00 +35°C° 0 mm 2 mps 674 mmHg 9%
    11:00 +37°C° 0 mm 2 mps 673 mmHg 9%
    12:00 +38°C° 0 mm 2 mps 673 mmHg 8%
    13:00 +39°C° 0 mm 2 mps 672 mmHg 7%
    14:00 +39°C° 0 mm 2 mps 671 mmHg 7%
    15:00 +38°C° 0 mm 2 mps 671 mmHg 8%
    16:00 +38°C° 0 mm 2 mps 670 mmHg 8%
    17:00 +34°C° 0 mm 1 mps 670 mmHg 10%
    18:00 +31°C° 0 mm 1 mps 670 mmHg 12%
    19:00 +27°C° 0 mm 1 mps 670 mmHg 14%
    20:00 +26°C° 0 mm 1 mps 670 mmHg 15%
    21:00 +26°C° 0 mm 1 mps 670 mmHg 16%
    22:00 +23°C° 0 mm 0 mps 670 mmHg 17%
    23:00 +24°C° 0 mm 1 mps 670 mmHg 18%

    Pasado mañana, 20 Agosto, Lunes

    Tiempo Temperatura Precipitaciones Viento Presión Humedad
    00:00 +23°C° 0 mm 1 mps 670 mmHg 18%
    01:00 +23°C° 0 mm 1 mps 670 mmHg 19%
    02:00 +22°C° 0 mm 1 mps 669 mmHg 19%
    03:00 +21°C° 0 mm 1 mps 669 mmHg 20%
    04:00 +20°C° 0 mm 1 mps 669 mmHg 20%
    05:00 +21°C° 0 mm 1 mps 669 mmHg 19%
    06:00 +22°C° 0 mm 1 mps 670 mmHg 18%
    07:00 +23°C° 0 mm 1 mps 671 mmHg 17%
    08:00 +27°C° 0 mm 2 mps 672 mmHg 15%
    09:00 +31°C° 0 mm 2 mps 673 mmHg 12%
    10:00 +36°C° 0 mm 3 mps 674 mmHg 10%
    11:00 +37°C° 0 mm 2 mps 673 mmHg 9%
    12:00 +38°C° 0 mm 2 mps 672 mmHg 8%
    13:00 +39°C° 0 mm 2 mps 672 mmHg 8%
    14:00 +39°C° 0 mm 2 mps 671 mmHg 8%
    15:00 +39°C° 0 mm 2 mps 670 mmHg 8%
    16:00 +38°C° 0 mm 2 mps 670 mmHg 8%
    17:00 +34°C° 0 mm 1 mps 669 mmHg 9%
    18:00 +31°C° 0 mm 1 mps 669 mmHg 11%
    19:00 +28°C° 0 mm 1 mps 669 mmHg 13%
    20:00 +27°C° 0 mm 1 mps 669 mmHg 14%
    21:00 +26°C° 0 mm 1 mps 670 mmHg 15%
    22:00 +25°C° 0 mm 1 mps 670 mmHg 16%
    23:00 +24°C° 0 mm 1 mps 670 mmHg 17%

    21 Agosto, Martes

    Tiempo Temperatura Precipitaciones Viento Presión Humedad
    00:00 +23°C° 0 mm 1 mps 669 mmHg 18%
    01:00 +23°C° 0 mm 1 mps 669 mmHg 19%
    02:00 +22°C° 0 mm 1 mps 669 mmHg 20%
    03:00 +21°C° 0 mm 1 mps 669 mmHg 21%
    04:00 +21°C° 0 mm 1 mps 669 mmHg 21%
    05:00 +22°C° 0 mm 1 mps 669 mmHg 21%
    06:00 +22°C° 0 mm 1 mps 670 mmHg 21%
    07:00 +23°C° 0 mm 1 mps 671 mmHg 20%
    08:00 +27°C° 0 mm 1 mps 672 mmHg 17%
    09:00 +31°C° 0 mm 1 mps 673 mmHg 13%
    10:00 +35°C° 0 mm 1 mps 674 mmHg 10%
    11:00 +37°C° 0 mm 1 mps 673 mmHg 9%
    12:00 +40°C° 0 mm 1 mps 673 mmHg 8%
    13:00 +42°C° 0 mm 1 mps 672 mmHg 7%
    14:00 +41°C° 0 mm 1 mps 671 mmHg 7%
    15:00 +40°C° 0 mm 1 mps 670 mmHg 7%
    16:00 +39°C° 0 mm 1 mps 670 mmHg 8%
    17:00 +35°C° 0 mm 1 mps 670 mmHg 9%
    18:00 +32°C° 0 mm 1 mps 670 mmHg 11%
    19:00 +29°C° 0 mm 1 mps 669 mmHg 13%
    20:00 +28°C° 0 mm 1 mps 670 mmHg 14%
    21:00 +27°C° 0 mm 1 mps 670 mmHg 15%
    22:00 +26°C° 0 mm 1 mps 670 mmHg 17%
    23:00 +25°C° 0 mm 1 mps 670 mmHg 19%

    22 Agosto, Miércoles

    Tiempo Temperatura Precipitaciones Viento Presión Humedad
    00:00 +24°C° 0 mm 1 mps 670 mmHg 21%
    01:00 +23°C° 0 mm 1 mps 669 mmHg 24%
    02:00 +23°C° 0 mm 1 mps 669 mmHg 25%
    03:00 +23°C° 0 mm 1 mps 669 mmHg 27%
    04:00 +23°C° 0 mm 1 mps 669 mmHg 29%
    05:00 +24°C° 0 mm 2 mps 670 mmHg 29%
    06:00 +25°C° 0 mm 2 mps 671 mmHg 29%
    07:00 +25°C° 0 mm 2 mps 671 mmHg 30%
    08:00 +29°C° 0 mm 2 mps 672 mmHg 26%
    09:00 +33°C° 0 mm 3 mps 672 mmHg 22%
    10:00 +36°C° 0 mm 3 mps 673 mmHg 18%
    11:00 +38°C° 0 mm 2 mps 672 mmHg 16%
    12:00 +40°C° 0 mm 2 mps 672 mmHg 13%
    13:00 +42°C° 0 mm 1 mps 672 mmHg 11%
    14:00 +41°C° 0 mm 1 mps 671 mmHg 11%
    15:00 +40°C° 0 mm 1 mps 670 mmHg 12%
    16:00 +39°C° 0 mm 1 mps 670 mmHg 12%
    17:00 +36°C° 0 mm 1 mps 670 mmHg 15%
    18:00 +33°C° 0 mm 1 mps 670 mmHg 17%
    19:00 +31°C° 0 mm 2 mps 670 mmHg 20%
    20:00 +30°C° 0 mm 2 mps 670 mmHg 23%
    21:00 +29°C° 0 mm 2 mps 671 mmHg 25%
    22:00 +29°C° 0 mm 2 mps 671 mmHg 28%
    23:00 +28°C° 0 mm 2 mps 670 mmHg 30%

    23 Agosto, Jueves

    Tiempo Temperatura Precipitaciones Viento Presión Humedad
    00:00 +27°C° 0 mm 2 mps 670 mmHg 32%
    01:00 +26°C° 0 mm 2 mps 670 mmHg 34%
    02:00 +26°C° 0 mm 1 mps 670 mmHg 36%
    03:00 +25°C° 0 mm 1 mps 670 mmHg 38%
    04:00 +25°C° 0 mm 1 mps 670 mmHg 40%
    05:00 +25°C° 0 mm 2 mps 670 mmHg 39%
    06:00 +26°C° 0 mm 2 mps 671 mmHg 37%
    07:00 +27°C° 0 mm 3 mps 671 mmHg 36%
    08:00 +29°C° 0 mm 3 mps 672 mmHg 31%
    09:00 +33°C° 0 mm 3 mps 672 mmHg 26%
    10:00 +36°C° 0 mm 3 mps 673 mmHg 22%
    11:00 +37°C° 0 mm 2 mps 672 mmHg 20%
    12:00 +38°C° 0 mm 2 mps 671 mmHg 18%
    13:00 +39°C° 0 mm 2 mps 671 mmHg 17%
    14:00 +38°C° 0 mm 2 mps 670 mmHg 18%
    15:00 +36°C° 0 mm 1 mps 670 mmHg 20%
    16:00 +35°C° 0 mm 1 mps 669 mmHg 21%
    17:00 +33°C° 0 mm 1 mps 669 mmHg 24%
    18:00 +32°C° 0 mm 1 mps 670 mmHg 26%
    19:00 +30°C° 0 mm 1 mps 670 mmHg 29%
    20:00 +29°C° 0 mm 1 mps 670 mmHg 31%
    21:00 +28°C° 0 mm 1 mps 670 mmHg 34%
    22:00 +27°C° 0 mm 1 mps 670 mmHg 37%
    23:00 +26°C° 0 mm 1 mps 670 mmHg 38%
    Mostrar más